Regional Weather Roundup
Issued by NWS Albany, NY

Home | Current Version | Previous Version | Text Only | Print | Product List | Glossary On
Versions: 1 2 3 4 5 6 7 8 9 10 11 12 13 14 15 16 17 18 19 20 21 22 23 24 25 26 27 28 29 30 31 32 33 34 35 36 37 38 39 40 41 42 43 44 45 46 47 48 49 50
000
ASUS41 KALY 041810
RWRALY

NEW YORK STATE HOURLY WEATHER ROUNDUP
NATIONAL WEATHER SERVICE ALBANY NY
200 PM EDT SAT JUL 04 2015

NOTE: "FAIR" INDICATES FEW OR NO CLOUDS BELOW 12,000 FEET WITH NO
SIGNIFICANT WEATHER AND/OR NO OBSTRUCTIONS TO VISIBILITY.

NYZ032-033-038>043-046>054-057>066-NYZ062>081-041900-
EAST


CITY           SKY/WX    TMP DP  RH WIND       PRES   REMARKS
ALBANY         LGT RAIN  65  62  90 S6        29.99S FOG
GLENS FALLS    CLOUDY    63  60  90 S8        29.98S
POUGHKEEPSIE   LGT RAIN  67  61  81 N3        29.98S
NEWBURGH       CLOUDY    64  63  94 CALM      30.00F
MONTGOMERY     LGT RAIN  67  63  87 E3        29.98F
WHITE PLAINS   CLOUDY    71  60  68 N8        29.97R
ISLIP          PTSUNNY   74  62  66 N12       29.94R
NEW YORK CITY  LGT RAIN  71  63  75 NE5       29.96R
CENTRAL PARK   LGT RAIN  70  61  73 MISG      29.99S
$$

NYZ005>009-017-018-044>046-055-056-041900-
CENTRAL


CITY           SKY/WX    TMP DP  RH WIND       PRES   REMARKS
FULTON         MOSUNNY   77  63  61 VRB7      29.92F
SYRACUSE       PTSUNNY   77  61  57 VRB7      29.92F
ROME           PTSUNNY   72  62  71 SE7       29.96S
ELMIRA         CLOUDY    70  62  76 S6        29.95S
BINGHAMTON     CLOUDY    65  60  84 S8        29.99S
MONTICELLO     CLOUDY    63  61  94 SE3       30.02S
$$

NYZ026>034-041>043-041900-
NORTH


CITY           SKY/WX    TMP DP  RH WIND       PRES   REMARKS
WATERTOWN      CLOUDY    72  63  73 W9        29.93S
FORT DRUM      NOT AVBL
MASSENA        PTSUNNY   76  53  44 N3        29.92S
SARANAC LAKE   CLOUDY    69  61  75 SW7       29.95S
PLATTSBURGH    CLOUDY    71  58  63 S9        29.92F
$$

NYZ001>004-010>016-019>021-041900-
WEST


CITY           SKY/WX    TMP DP  RH WIND       PRES   REMARKS
NIAGARA FALLS  MOSUNNY   74  52  46 NW8       29.95S
BUFFALO        PTSUNNY   76  53  44 N7        29.95S
DUNKIRK        SUNNY     70  56  61 W8        29.97S
JAMESTOWN      SUNNY     72  54  53 NW13      29.99R
WELLSVILLE     MOSUNNY   74  55  51 NE5       29.98S
ROCHESTER      PTSUNNY   77  62  59 NW8       29.93S
PENN YAN       SUNNY     75  62  64 SW6       29.94S
$$

             KEY
       WCI = WIND CHILL INDEX
       VSB = VISIBILITY
       HX  = HEAT INDEX
$$


USA.gov is the U.S. government's official web portal to all federal, state and local government web resources and services.